Year,Month,Day,Hour,Minute,Value (Times are PST for windgust in km/hr)
2017,01,09,00,08,1.60
2017,01,09,00,09,1.60
2017,01,09,00,19,3.20
2017,01,09,00,20,1.60
2017,01,09,00,21,3.20
2017,01,09,00,22,1.60
2017,01,09,00,25,1.60
2017,01,09,00,28,4.80
2017,01,09,00,29,1.60
2017,01,09,00,35,1.60
2017,01,09,00,44,1.60
2017,01,09,00,47,1.60
2017,01,09,00,52,1.60
2017,01,09,00,54,1.60
2017,01,09,01,06,1.60
2017,01,09,01,07,1.60
2017,01,09,01,08,1.60
2017,01,09,01,30,1.60
2017,01,09,01,39,3.20
2017,01,09,01,40,1.60
2017,01,09,01,41,1.60
2017,01,09,01,45,1.60
2017,01,09,01,46,3.20
2017,01,09,01,47,3.20
2017,01,09,01,51,1.60
2017,01,09,01,54,3.20
2017,01,09,01,56,1.60
2017,01,09,02,04,1.60
2017,01,09,02,05,4.80
2017,01,09,02,06,3.20
2017,01,09,02,07,4.80
2017,01,09,02,08,4.80
2017,01,09,02,09,4.80
2017,01,09,02,10,4.80
2017,01,09,02,11,6.40
2017,01,09,02,12,6.40
2017,01,09,02,13,4.80
2017,01,09,02,14,4.80
2017,01,09,02,15,4.80
2017,01,09,02,16,4.80
2017,01,09,02,17,4.80
2017,01,09,02,18,4.80
2017,01,09,02,19,3.20
2017,01,09,02,20,4.80
2017,01,09,02,21,3.20
2017,01,09,02,22,3.20
2017,01,09,02,23,4.80
2017,01,09,02,24,3.20
2017,01,09,02,26,3.20
2017,01,09,02,27,16.10
2017,01,09,02,28,27.40
2017,01,09,02,29,14.50
2017,01,09,02,30,22.50
2017,01,09,02,31,30.60
2017,01,09,02,32,27.40
2017,01,09,02,33,22.50
2017,01,09,02,34,14.50
2017,01,09,02,35,33.80
2017,01,09,02,36,25.70
2017,01,09,02,37,29.00
2017,01,09,02,38,17.70
2017,01,09,02,39,16.10
2017,01,09,02,40,24.20
2017,01,09,02,41,25.70
2017,01,09,02,42,9.60
2017,01,09,02,43,6.40
2017,01,09,02,44,8.10
2017,01,09,02,45,12.90
2017,01,09,02,46,17.70
2017,01,09,02,47,19.30
2017,01,09,02,48,8.10
2017,01,09,02,49,25.70
2017,01,09,02,50,22.50
2017,01,09,02,51,20.90
2017,01,09,02,52,14.50
2017,01,09,02,53,14.50
2017,01,09,02,54,9.60
2017,01,09,02,55,14.50
2017,01,09,02,56,8.10
2017,01,09,02,57,6.40
2017,01,09,02,58,6.40
2017,01,09,02,59,25.70
2017,01,09,03,00,27.40
2017,01,09,03,01,19.30
2017,01,09,03,02,4.80
2017,01,09,03,03,11.30
2017,01,09,03,04,11.30
2017,01,09,03,05,16.10
2017,01,09,03,06,6.40
2017,01,09,03,07,4.80
2017,01,09,03,08,6.40
2017,01,09,03,09,6.40
2017,01,09,03,10,4.80
2017,01,09,03,11,14.50
2017,01,09,03,12,9.60
2017,01,09,03,13,9.60
2017,01,09,03,14,6.40
2017,01,09,03,15,6.40
2017,01,09,03,16,6.40
2017,01,09,03,17,4.80
2017,01,09,03,18,3.20
2017,01,09,03,19,3.20
2017,01,09,03,20,4.80
2017,01,09,03,21,4.80
2017,01,09,03,22,1.60
2017,01,09,03,23,8.10
2017,01,09,03,24,4.80
2017,01,09,03,25,4.80
2017,01,09,03,26,3.20
2017,01,09,03,27,3.20
2017,01,09,03,28,1.60
2017,01,09,03,29,3.20
2017,01,09,03,30,4.80
2017,01,09,03,32,1.60
2017,01,09,03,35,1.60
2017,01,09,03,36,3.20
2017,01,09,03,37,9.60
2017,01,09,03,38,8.10
2017,01,09,03,39,3.20
2017,01,09,03,40,4.80
2017,01,09,03,41,3.20
2017,01,09,03,42,3.20
2017,01,09,03,43,4.80
2017,01,09,03,44,8.10
2017,01,09,03,45,1.60
2017,01,09,03,46,3.20
2017,01,09,03,47,1.60
2017,01,09,03,48,3.20
2017,01,09,03,49,4.80
2017,01,09,03,50,6.40
2017,01,09,03,51,4.80
2017,01,09,03,52,8.10
2017,01,09,03,53,4.80
2017,01,09,03,54,3.20
2017,01,09,03,56,6.40
2017,01,09,03,57,4.80
2017,01,09,03,58,1.60
2017,01,09,03,59,1.60
2017,01,09,04,00,4.80
2017,01,09,04,01,6.40
2017,01,09,04,02,1.60
2017,01,09,04,03,8.10
2017,01,09,04,04,6.40
2017,01,09,04,05,6.40
2017,01,09,04,06,6.40
2017,01,09,04,07,14.50
2017,01,09,04,08,3.20
2017,01,09,04,09,9.60
2017,01,09,04,10,11.30
2017,01,09,04,11,1.60
2017,01,09,04,12,3.20
2017,01,09,04,13,3.20
2017,01,09,04,14,4.80
2017,01,09,04,15,1.60
2017,01,09,04,16,4.80
2017,01,09,04,17,6.40
2017,01,09,04,18,6.40
2017,01,09,04,19,6.40
2017,01,09,04,20,6.40
2017,01,09,04,21,3.20
2017,01,09,04,22,6.40
2017,01,09,04,23,4.80
2017,01,09,04,24,4.80
2017,01,09,04,25,3.20
2017,01,09,04,26,4.80
2017,01,09,04,27,4.80
2017,01,09,04,28,4.80
2017,01,09,04,29,8.10
2017,01,09,04,30,3.20
2017,01,09,04,32,3.20
2017,01,09,04,33,6.40
2017,01,09,04,34,8.10
2017,01,09,04,35,6.40
2017,01,09,04,36,4.80
2017,01,09,04,37,3.20
2017,01,09,04,38,1.60
2017,01,09,04,39,3.20
2017,01,09,04,41,1.60
2017,01,09,04,42,14.50
2017,01,09,04,43,14.50
2017,01,09,04,44,3.20
2017,01,09,04,45,11.30
2017,01,09,04,46,14.50
2017,01,09,04,47,8.10
2017,01,09,04,48,3.20
2017,01,09,04,49,4.80
2017,01,09,04,50,1.60
2017,01,09,04,51,3.20
2017,01,09,04,52,4.80
2017,01,09,04,53,3.20
2017,01,09,04,54,4.80
2017,01,09,04,55,17.70
2017,01,09,04,56,8.10
2017,01,09,04,57,8.10
2017,01,09,04,58,3.20
2017,01,09,04,59,1.60
2017,01,09,05,00,6.40
2017,01,09,05,01,9.60
2017,01,09,05,02,11.30
2017,01,09,05,03,8.10
2017,01,09,05,04,6.40
2017,01,09,05,05,4.80
2017,01,09,05,06,17.70
2017,01,09,05,07,16.10
2017,01,09,05,08,16.10
2017,01,09,05,09,11.30
2017,01,09,05,10,6.40
2017,01,09,05,11,4.80
2017,01,09,05,12,3.20
2017,01,09,05,13,3.20
2017,01,09,05,14,4.80
2017,01,09,05,15,6.40
2017,01,09,05,16,6.40
2017,01,09,05,17,8.10
2017,01,09,05,18,4.80
2017,01,09,05,19,3.20
2017,01,09,05,20,4.80
2017,01,09,05,21,6.40
2017,01,09,05,22,4.80
2017,01,09,05,23,4.80
2017,01,09,05,24,8.10
2017,01,09,05,25,4.80
2017,01,09,05,27,1.60
2017,01,09,05,28,1.60
2017,01,09,05,29,3.20
2017,01,09,05,30,1.60
2017,01,09,05,31,4.80
2017,01,09,05,32,4.80
2017,01,09,05,33,3.20
2017,01,09,05,42,3.20
2017,01,09,05,43,3.20
2017,01,09,05,44,4.80
2017,01,09,05,45,1.60
2017,01,09,05,47,1.60
2017,01,09,05,48,3.20
2017,01,09,09,17,3.20
2017,01,09,09,18,4.80
2017,01,09,09,19,4.80
2017,01,09,09,20,3.20
2017,01,09,09,44,1.60
2017,01,09,09,45,3.20
2017,01,09,09,46,1.60
2017,01,09,09,50,3.20
2017,01,09,09,51,3.20
2017,01,09,09,52,4.80
2017,01,09,09,53,3.20
2017,01,09,09,54,6.40
2017,01,09,09,55,3.20
2017,01,09,09,56,3.20
2017,01,09,09,58,1.60
2017,01,09,09,59,1.60
2017,01,09,10,00,3.20
2017,01,09,10,01,1.60
2017,01,09,10,06,3.20
2017,01,09,10,07,3.20
2017,01,09,10,08,4.80
2017,01,09,10,09,3.20
2017,01,09,10,10,3.20
2017,01,09,10,11,4.80
2017,01,09,10,14,3.20
2017,01,09,10,15,4.80
2017,01,09,10,16,1.60
2017,01,09,10,18,6.40
2017,01,09,10,19,4.80
2017,01,09,10,20,8.10
2017,01,09,10,21,11.30
2017,01,09,10,22,4.80
2017,01,09,10,23,4.80
2017,01,09,10,24,6.40
2017,01,09,10,25,4.80
2017,01,09,10,27,1.60
2017,01,09,10,29,3.20
2017,01,09,10,30,4.80
2017,01,09,10,38,1.60
2017,01,09,10,39,4.80
2017,01,09,10,41,1.60
2017,01,09,10,44,4.80
2017,01,09,10,45,1.60
2017,01,09,10,46,1.60
2017,01,09,10,48,1.60
2017,01,09,10,49,1.60
2017,01,09,10,50,1.60
2017,01,09,10,53,4.80
2017,01,09,10,54,1.60
2017,01,09,10,55,1.60
2017,01,09,11,04,6.40
2017,01,09,11,05,1.60
2017,01,09,11,08,3.20
2017,01,09,11,09,6.40
2017,01,09,11,10,4.80
2017,01,09,11,11,1.60
2017,01,09,11,14,1.60
2017,01,09,11,16,3.20
2017,01,09,11,17,4.80
2017,01,09,11,20,6.40
2017,01,09,11,23,1.60
2017,01,09,11,24,6.40
2017,01,09,11,25,6.40
2017,01,09,11,26,4.80
2017,01,09,11,27,3.20
2017,01,09,11,28,1.60
2017,01,09,11,29,4.80
2017,01,09,11,30,3.20
2017,01,09,11,33,1.60
2017,01,09,11,34,4.80
2017,01,09,11,35,3.20
2017,01,09,11,38,1.60
2017,01,09,11,44,1.60
2017,01,09,11,45,3.20
2017,01,09,11,52,1.60
2017,01,09,11,55,1.60
2017,01,09,12,05,3.20
2017,01,09,12,06,3.20
2017,01,09,12,07,3.20
2017,01,09,12,09,1.60
2017,01,09,12,10,9.60
2017,01,09,12,11,3.20
2017,01,09,12,12,3.20
2017,01,09,12,15,4.80
2017,01,09,12,16,4.80
2017,01,09,12,17,4.80
2017,01,09,12,18,6.40
2017,01,09,12,19,1.60
2017,01,09,12,20,1.60
2017,01,09,12,23,1.60
2017,01,09,12,31,3.20
2017,01,09,12,32,3.20
2017,01,09,12,33,1.60
2017,01,09,12,34,4.80
2017,01,09,12,35,3.20
2017,01,09,12,36,4.80
2017,01,09,12,37,1.60
2017,01,09,12,47,6.40
2017,01,09,12,48,6.40
2017,01,09,12,49,4.80
2017,01,09,12,50,4.80
2017,01,09,12,51,4.80
2017,01,09,12,52,3.20
2017,01,09,12,53,3.20
2017,01,09,12,54,8.10
2017,01,09,12,56,1.60
2017,01,09,12,57,1.60
2017,01,09,12,58,3.20
2017,01,09,12,59,3.20
2017,01,09,13,00,4.80
2017,01,09,13,01,4.80
2017,01,09,13,05,1.60
2017,01,09,13,06,1.60
2017,01,09,13,08,1.60
2017,01,09,13,09,4.80
2017,01,09,13,10,6.40
2017,01,09,13,11,3.20
2017,01,09,13,12,3.20
2017,01,09,13,13,1.60
2017,01,09,13,14,3.20
2017,01,09,13,15,3.20
2017,01,09,13,18,3.20
2017,01,09,13,19,3.20
2017,01,09,13,25,1.60
2017,01,09,13,26,1.60
2017,01,09,13,28,1.60
2017,01,09,13,31,3.20
2017,01,09,13,32,1.60
2017,01,09,13,33,1.60
2017,01,09,13,34,3.20
2017,01,09,13,38,1.60
2017,01,09,13,39,1.60
2017,01,09,13,40,3.20
2017,01,09,13,41,1.60
2017,01,09,13,42,1.60
2017,01,09,13,48,3.20
2017,01,09,13,49,4.80
2017,01,09,13,50,4.80
2017,01,09,13,51,1.60
2017,01,09,13,52,1.60
2017,01,09,13,53,3.20
2017,01,09,13,54,1.60
2017,01,09,13,55,3.20
2017,01,09,13,56,3.20
2017,01,09,13,57,4.80
2017,01,09,13,58,3.20
2017,01,09,13,59,4.80
2017,01,09,14,02,3.20
2017,01,09,14,03,3.20
2017,01,09,14,04,3.20
2017,01,09,14,05,3.20
2017,01,09,14,06,1.60
2017,01,09,14,07,1.60
2017,01,09,14,08,3.20
2017,01,09,14,09,1.60
2017,01,09,14,11,1.60
2017,01,09,14,12,3.20
2017,01,09,14,13,3.20
2017,01,09,14,14,4.80
2017,01,09,14,15,8.10
2017,01,09,14,16,3.20
2017,01,09,14,17,8.10
2017,01,09,14,18,3.20
2017,01,09,14,19,1.60
2017,01,09,14,20,3.20
2017,01,09,14,21,3.20
2017,01,09,14,22,3.20
2017,01,09,14,23,4.80
2017,01,09,14,24,1.60
2017,01,09,14,25,3.20
2017,01,09,14,26,6.40
2017,01,09,14,27,3.20
2017,01,09,14,28,3.20
2017,01,09,14,29,1.60
2017,01,09,14,30,3.20
2017,01,09,14,31,3.20
2017,01,09,14,32,3.20
2017,01,09,14,33,4.80
2017,01,09,14,34,4.80
2017,01,09,14,35,4.80
2017,01,09,14,36,3.20
2017,01,09,14,37,1.60
2017,01,09,14,38,1.60
2017,01,09,14,39,4.80
2017,01,09,14,40,6.40
2017,01,09,14,41,4.80
2017,01,09,14,42,1.60
2017,01,09,14,43,4.80
2017,01,09,14,44,3.20
2017,01,09,14,45,4.80
2017,01,09,14,46,4.80
2017,01,09,14,47,1.60
2017,01,09,14,48,4.80
2017,01,09,14,49,3.20
2017,01,09,14,50,3.20
2017,01,09,14,51,1.60
2017,01,09,14,52,1.60
2017,01,09,14,53,3.20
2017,01,09,14,54,4.80
2017,01,09,14,55,1.60
2017,01,09,14,56,1.60
2017,01,09,14,57,8.10
2017,01,09,14,58,3.20
2017,01,09,15,00,3.20
2017,01,09,15,01,3.20
2017,01,09,15,03,1.60
2017,01,09,15,04,8.10
2017,01,09,15,05,4.80
2017,01,09,15,06,8.10
2017,01,09,15,07,1.60
2017,01,09,15,08,3.20
2017,01,09,15,09,1.60
2017,01,09,15,17,3.20
2017,01,09,15,18,9.60
2017,01,09,15,19,9.60
2017,01,09,15,22,3.20
2017,01,09,15,23,1.60
2017,01,09,15,27,3.20
2017,01,09,15,28,6.40
2017,01,09,15,29,1.60
2017,01,09,15,37,8.10
2017,01,09,15,38,4.80
2017,01,09,15,39,3.20
2017,01,09,15,43,1.60
2017,01,09,15,45,1.60
2017,01,09,15,48,1.60
2017,01,09,15,49,1.60
2017,01,09,15,51,4.80
2017,01,09,15,52,3.20
2017,01,09,15,53,1.60
2017,01,09,15,55,3.20
2017,01,09,15,56,1.60
2017,01,09,15,58,1.60
2017,01,09,15,59,3.20
2017,01,09,16,04,4.80
2017,01,09,16,05,3.20
2017,01,09,16,12,1.60
2017,01,09,16,13,6.40
2017,01,09,16,14,3.20
2017,01,09,16,15,4.80
2017,01,09,16,16,3.20
2017,01,09,16,17,3.20
2017,01,09,16,18,1.60
2017,01,09,16,19,1.60
2017,01,09,16,20,1.60
2017,01,09,16,22,3.20
2017,01,09,16,23,3.20
2017,01,09,16,24,3.20
2017,01,09,16,25,3.20
2017,01,09,16,26,3.20
2017,01,09,16,27,1.60
2017,01,09,16,28,1.60
2017,01,09,16,29,1.60
2017,01,09,16,31,3.20
2017,01,09,16,32,8.10
2017,01,09,16,33,1.60
2017,01,09,16,34,3.20
2017,01,09,16,35,11.30
2017,01,09,16,36,1.60
2017,01,09,16,37,1.60
2017,01,09,16,38,1.60
2017,01,09,16,39,1.60
2017,01,09,16,41,3.20
2017,01,09,16,42,1.60
2017,01,09,16,44,3.20
2017,01,09,16,45,1.60
2017,01,09,16,46,1.60
2017,01,09,16,49,4.80
2017,01,09,16,50,1.60
2017,01,09,16,51,3.20
2017,01,09,16,52,4.80
2017,01,09,16,53,3.20
2017,01,09,16,54,1.60
2017,01,09,16,55,1.60
2017,01,09,16,56,3.20
2017,01,09,17,01,1.60
2017,01,09,17,02,1.60
2017,01,09,17,04,1.60
2017,01,09,17,06,3.20
2017,01,09,17,07,3.20
2017,01,09,17,08,1.60
2017,01,09,17,09,1.60
2017,01,09,17,10,1.60
2017,01,09,17,11,1.60
2017,01,09,17,12,3.20
2017,01,09,17,13,1.60
2017,01,09,17,15,1.60
2017,01,09,17,19,1.60
2017,01,09,17,20,4.80
2017,01,09,17,21,3.20
2017,01,09,17,22,1.60
2017,01,09,17,25,1.60
2017,01,09,17,27,1.60
2017,01,09,17,28,3.20
2017,01,09,17,29,1.60
2017,01,09,17,30,6.40
2017,01,09,17,31,4.80
2017,01,09,17,32,1.60
2017,01,09,17,33,3.20
2017,01,09,17,34,3.20
2017,01,09,17,35,3.20
2017,01,09,17,36,6.40
2017,01,09,17,37,6.40
2017,01,09,17,38,1.60
2017,01,09,17,39,4.80
2017,01,09,17,40,3.20
2017,01,09,17,41,3.20
2017,01,09,17,42,3.20
2017,01,09,17,43,3.20
2017,01,09,17,46,1.60
2017,01,09,17,47,1.60
2017,01,09,17,48,3.20
2017,01,09,17,49,3.20
2017,01,09,17,50,1.60
2017,01,09,17,51,4.80
2017,01,09,17,52,11.30
2017,01,09,17,53,4.80
2017,01,09,17,54,3.20
2017,01,09,17,55,1.60
2017,01,09,17,56,1.60
2017,01,09,17,57,1.60
2017,01,09,17,58,1.60
2017,01,09,18,03,1.60
2017,01,09,18,04,3.20
2017,01,09,18,05,1.60
2017,01,09,18,06,3.20
2017,01,09,18,07,9.60
2017,01,09,18,08,1.60
2017,01,09,18,09,3.20
2017,01,09,18,10,3.20
2017,01,09,18,11,3.20
2017,01,09,18,12,1.60
2017,01,09,18,13,1.60
2017,01,09,18,15,1.60
2017,01,09,18,16,1.60
2017,01,09,18,17,3.20
2017,01,09,18,18,3.20
2017,01,09,18,19,4.80
2017,01,09,18,20,11.30
2017,01,09,18,21,9.60
2017,01,09,18,22,3.20
2017,01,09,18,23,4.80
2017,01,09,18,24,4.80
2017,01,09,18,25,1.60
2017,01,09,18,27,4.80
2017,01,09,18,28,6.40
2017,01,09,18,29,3.20
2017,01,09,18,30,3.20
2017,01,09,18,31,4.80
2017,01,09,18,32,3.20
2017,01,09,18,33,3.20
2017,01,09,18,34,9.60
2017,01,09,18,35,6.40
2017,01,09,18,36,3.20
2017,01,09,18,37,3.20
2017,01,09,18,38,1.60
2017,01,09,18,39,3.20
2017,01,09,18,40,6.40
2017,01,09,18,41,4.80
2017,01,09,18,43,3.20
2017,01,09,18,44,4.80
2017,01,09,18,45,3.20
2017,01,09,18,46,3.20
2017,01,09,18,47,3.20
2017,01,09,18,48,3.20
2017,01,09,18,49,8.10
2017,01,09,18,50,3.20
2017,01,09,18,51,4.80
2017,01,09,18,52,9.60
2017,01,09,18,53,9.60
2017,01,09,18,54,3.20
2017,01,09,18,55,3.20
2017,01,09,18,56,1.60
2017,01,09,18,58,4.80
2017,01,09,18,59,1.60
2017,01,09,19,02,4.80
2017,01,09,19,03,6.40
2017,01,09,19,04,8.10
2017,01,09,19,05,4.80
2017,01,09,19,06,3.20
2017,01,09,19,09,1.60
2017,01,09,19,10,1.60
2017,01,09,19,11,3.20
2017,01,09,19,12,1.60
2017,01,09,19,14,1.60
2017,01,09,19,15,4.80
2017,01,09,19,16,3.20
2017,01,09,19,17,4.80
2017,01,09,19,18,8.10
2017,01,09,19,19,6.40
2017,01,09,19,20,4.80
2017,01,09,19,21,3.20
2017,01,09,19,22,6.40
2017,01,09,19,23,6.40
2017,01,09,19,24,3.20
2017,01,09,19,25,3.20
2017,01,09,19,26,3.20
2017,01,09,19,27,8.10
2017,01,09,19,28,4.80
2017,01,09,19,29,8.10
2017,01,09,19,30,3.20
2017,01,09,19,31,1.60
2017,01,09,19,32,1.60
2017,01,09,19,34,4.80
2017,01,09,19,35,3.20
2017,01,09,19,36,9.60
2017,01,09,19,37,3.20
2017,01,09,19,38,1.60
2017,01,09,19,39,6.40
2017,01,09,19,40,8.10
2017,01,09,19,41,6.40
2017,01,09,19,42,3.20
2017,01,09,19,43,3.20
2017,01,09,19,44,4.80
2017,01,09,19,45,4.80
2017,01,09,19,46,6.40
2017,01,09,19,47,4.80
2017,01,09,19,48,4.80
2017,01,09,19,49,4.80
2017,01,09,19,50,9.60
2017,01,09,19,51,9.60
2017,01,09,19,52,8.10
2017,01,09,19,53,9.60
2017,01,09,19,54,4.80
2017,01,09,19,55,4.80
2017,01,09,19,56,4.80
2017,01,09,19,57,6.40
2017,01,09,19,58,6.40
2017,01,09,19,59,4.80
2017,01,09,20,00,6.40
2017,01,09,20,01,4.80
2017,01,09,20,02,4.80
2017,01,09,20,03,4.80
2017,01,09,20,04,4.80
2017,01,09,20,05,4.80
2017,01,09,20,06,4.80
2017,01,09,20,07,4.80
2017,01,09,20,08,4.80
2017,01,09,20,09,4.80
2017,01,09,20,10,1.60
2017,01,09,20,11,3.20
2017,01,09,20,12,3.20
2017,01,09,20,13,4.80
2017,01,09,20,14,4.80
2017,01,09,20,15,9.60
2017,01,09,20,16,8.10
2017,01,09,20,17,6.40
2017,01,09,20,18,6.40
2017,01,09,20,19,4.80
2017,01,09,20,20,6.40
2017,01,09,20,21,4.80
2017,01,09,20,22,4.80
2017,01,09,20,23,6.40
2017,01,09,20,24,6.40
2017,01,09,20,25,4.80
2017,01,09,20,26,4.80
2017,01,09,20,27,6.40
2017,01,09,20,28,6.40
2017,01,09,20,29,4.80
2017,01,09,20,30,9.60
2017,01,09,20,31,6.40
2017,01,09,20,32,4.80
2017,01,09,20,33,8.10
2017,01,09,20,34,6.40
2017,01,09,20,35,6.40
2017,01,09,20,36,4.80
2017,01,09,20,37,4.80
2017,01,09,20,38,4.80
2017,01,09,20,39,6.40
2017,01,09,20,40,4.80
2017,01,09,20,41,4.80
2017,01,09,20,42,6.40
2017,01,09,20,43,4.80
2017,01,09,20,44,4.80
2017,01,09,20,45,4.80
2017,01,09,20,46,4.80
2017,01,09,20,47,4.80
2017,01,09,20,48,6.40
2017,01,09,20,49,11.30
2017,01,09,20,50,8.10
2017,01,09,20,51,8.10
2017,01,09,20,52,8.10
2017,01,09,20,53,6.40
2017,01,09,20,54,6.40
2017,01,09,20,55,4.80
2017,01,09,20,56,6.40
2017,01,09,20,57,6.40
2017,01,09,20,58,6.40
2017,01,09,20,59,6.40
2017,01,09,21,00,6.40
2017,01,09,21,01,6.40
2017,01,09,21,02,6.40
2017,01,09,21,03,16.10
2017,01,09,21,04,6.40
2017,01,09,21,05,11.30
2017,01,09,21,06,6.40
2017,01,09,21,07,4.80
2017,01,09,21,08,4.80
2017,01,09,21,09,4.80
2017,01,09,21,10,6.40
2017,01,09,21,11,9.60
2017,01,09,21,12,6.40
2017,01,09,21,13,6.40
2017,01,09,21,14,6.40
2017,01,09,21,15,6.40
2017,01,09,21,16,6.40
2017,01,09,21,17,4.80
2017,01,09,21,18,4.80
2017,01,09,21,19,6.40
2017,01,09,21,20,6.40
2017,01,09,21,21,8.10
2017,01,09,21,22,6.40
2017,01,09,21,23,3.20
2017,01,09,21,24,4.80
2017,01,09,21,25,3.20
2017,01,09,21,26,4.80
2017,01,09,21,27,6.40
2017,01,09,21,28,4.80
2017,01,09,21,29,4.80
2017,01,09,21,30,1.60
2017,01,09,21,31,4.80
2017,01,09,21,32,4.80
2017,01,09,21,33,1.60
2017,01,09,21,34,6.40
2017,01,09,21,35,6.40
2017,01,09,21,36,4.80
2017,01,09,21,37,4.80
2017,01,09,21,38,8.10
2017,01,09,21,39,6.40
2017,01,09,21,40,3.20
2017,01,09,21,41,4.80
2017,01,09,21,42,4.80
2017,01,09,21,43,3.20
2017,01,09,21,44,4.80
2017,01,09,21,45,4.80
2017,01,09,21,46,4.80
2017,01,09,21,47,3.20
2017,01,09,21,48,3.20
2017,01,09,21,49,3.20
2017,01,09,21,50,3.20
2017,01,09,21,51,1.60
2017,01,09,21,52,6.40
2017,01,09,21,53,9.60
2017,01,09,21,54,4.80
2017,01,09,21,55,6.40
2017,01,09,21,56,4.80
2017,01,09,21,57,4.80
2017,01,09,21,58,6.40
2017,01,09,21,59,4.80
2017,01,09,22,00,8.10
2017,01,09,22,01,3.20
2017,01,09,22,02,11.30
2017,01,09,22,03,6.40
2017,01,09,22,04,8.10
2017,01,09,22,05,1.60
2017,01,09,22,06,6.40
2017,01,09,22,07,11.30
2017,01,09,22,08,8.10
2017,01,09,22,09,8.10
2017,01,09,22,10,9.60
2017,01,09,22,11,6.40
2017,01,09,22,12,9.60
2017,01,09,22,13,4.80
2017,01,09,22,14,1.60
2017,01,09,22,15,6.40
2017,01,09,22,16,14.50
2017,01,09,22,17,14.50
2017,01,09,22,18,16.10
2017,01,09,22,19,16.10
2017,01,09,22,20,11.30
2017,01,09,22,21,12.90
2017,01,09,22,22,16.10
2017,01,09,22,23,6.40
2017,01,09,22,24,6.40
2017,01,09,22,25,16.10
2017,01,09,22,26,9.60
2017,01,09,22,27,8.10
2017,01,09,22,28,8.10
2017,01,09,22,29,6.40
2017,01,09,22,30,8.10
2017,01,09,22,31,6.40
2017,01,09,22,32,6.40
2017,01,09,22,33,6.40
2017,01,09,22,34,8.10
2017,01,09,22,35,8.10
2017,01,09,22,36,11.30
2017,01,09,22,37,11.30
2017,01,09,22,38,17.70
2017,01,09,22,39,16.10
2017,01,09,22,40,12.90
2017,01,09,22,41,8.10
2017,01,09,22,42,17.70
2017,01,09,22,43,9.60
2017,01,09,22,44,4.80
2017,01,09,22,45,6.40
2017,01,09,22,46,6.40
2017,01,09,22,47,4.80
2017,01,09,22,48,6.40
2017,01,09,22,49,8.10
2017,01,09,22,50,8.10
2017,01,09,22,51,16.10
2017,01,09,22,52,16.10
2017,01,09,22,53,11.30
2017,01,09,22,54,8.10
2017,01,09,22,55,14.50
2017,01,09,22,56,12.90
2017,01,09,22,57,19.30
2017,01,09,22,58,14.50
2017,01,09,22,59,8.10
2017,01,09,23,00,16.10
2017,01,09,23,01,16.10
2017,01,09,23,02,11.30
2017,01,09,23,03,8.10
2017,01,09,23,04,6.40
2017,01,09,23,05,11.30
2017,01,09,23,06,14.50
2017,01,09,23,07,8.10
2017,01,09,23,08,8.10
2017,01,09,23,09,4.80
2017,01,09,23,10,1.60
2017,01,09,23,11,8.10
2017,01,09,23,12,4.80
2017,01,09,23,13,1.60
2017,01,09,23,14,6.40
2017,01,09,23,15,6.40
2017,01,09,23,16,8.10
2017,01,09,23,17,12.90
2017,01,09,23,18,14.50
2017,01,09,23,19,8.10
2017,01,09,23,20,8.10
2017,01,09,23,21,6.40
2017,01,09,23,22,6.40
2017,01,09,23,23,8.10
2017,01,09,23,24,9.60
2017,01,09,23,25,8.10
2017,01,09,23,26,6.40
2017,01,09,23,27,8.10
2017,01,09,23,28,8.10
2017,01,09,23,29,6.40
2017,01,09,23,30,6.40
2017,01,09,23,31,3.20
2017,01,09,23,32,4.80
2017,01,09,23,33,6.40
2017,01,09,23,34,6.40
2017,01,09,23,35,9.60
2017,01,09,23,36,6.40
2017,01,09,23,37,6.40
2017,01,09,23,38,6.40
2017,01,09,23,39,6.40
2017,01,09,23,40,6.40
2017,01,09,23,41,6.40
2017,01,09,23,42,9.60
2017,01,09,23,43,11.30
2017,01,09,23,44,6.40
2017,01,09,23,45,8.10
2017,01,09,23,46,9.60
2017,01,09,23,47,9.60
2017,01,09,23,48,9.60
2017,01,09,23,49,6.40
2017,01,09,23,50,9.60
2017,01,09,23,51,11.30
2017,01,09,23,52,8.10
2017,01,09,23,53,9.60
2017,01,09,23,54,4.80
2017,01,09,23,55,6.40
2017,01,09,23,56,11.30
2017,01,09,23,57,11.30
2017,01,09,23,58,4.80
2017,01,09,23,59,3.20
